User: anonymous
Location: UBC Liquid-Mirror Observatory
(49.2876°N, 122.5728°W)
Time: 03:01:13
(UTC-07:00)
Language:

Cosmos 1743 Rocket - Orbit

View from above orbital plane
View from above orbital plane
View from above satellite
View from above satellite

Ground track
Ground track

The orbit data is extracted from the following two-line orbital elements,

1 16720U 86034B   14238.16349677  .00000181  00000-0  19444-4 0  5316
2 16720 082.5539 117.8260 0019272 242.7207 232.3468 14.82774840527186
Epoch (UTC): 26 August 2014 03:55:26
Eccentricity: 0.0019272
inclination: 82.5539°
perigee height: 607 km
apogee height: 634 km
right ascension of ascending node: 117.8260°
argument of perigee: 242.7207°
revolutions per day: 14.82774840
mean anomaly at epoch: 232.3468°
orbit number at epoch: 52718

The dashed part of the orbit path shows where the satellite is in the earth's shadow,  

DLR